| time (UTC) | temp F | wind direction | speed MPH | gust MPH | rain 1hr in | rain 24hr in | rain mn in | humidity % | barometer mb |
| 20260508011400 | 49 | 162 | 2.0 | 4.0 | 0.00 | 0.00 | 0.00 | 84 | 1013.3 |
| 20260508010906 | 49 | 190 | 1.0 | 3.0 | 0.00 | 0.00 | 0.00 | 84 | 1013.3 |
| 20260508010346 | 49 | 190 | 2.0 | 3.0 | 0.00 | 0.00 | 0.00 | 84 | 1013.4 |
| 20260508005854 | 49 | 190 | 2.0 | 3.0 | 0.00 | 0.00 | 0.00 | 84 | 1013.4 |
| 20260508005413 | 49 | 190 | 3.0 | 3.0 | 0.00 | 0.00 | 0.00 | 84 | 1013.4 |
| 20260508004910 | 49 | 146 | 1.0 | 2.0 | 0.00 | 0.00 | 0.00 | 83 | 1013.4 |
| 20260508004348 | 49 | 146 | 0.0 | 2.0 | 0.00 | 0.00 | 0.00 | 83 | 1013.3 |
| 20260508003842 | 49 | 146 | 1.0 | 2.0 | 0.00 | 0.00 | 0.00 | 83 | 1013.3 |
| 20260508003344 | 49 | 146 | 1.0 | 2.0 | 0.00 | 0.00 | 0.00 | 83 | 1013.3 |
| 20260508002844 | 49 | 158 | 1.0 | 3.0 | 0.00 | 0.00 | 0.00 | 83 | 1013.3 |
| 20260508002407 | 49 | 159 | 1.0 | 3.0 | 0.00 | 0.00 | 0.00 | 83 | 1013.3 |
| 20260508001901 | 50 | 159 | 1.0 | 3.0 | 0.00 | 0.00 | 0.00 | 83 | 1013.4 |
| 20260508001402 | 50 | 162 | 2.0 | 3.0 | 0.00 | 0.00 | 0.00 | 83 | 1013.4 |
| 20260508000843 | 50 | 169 | 2.0 | 4.0 | 0.00 | 0.00 | 0.00 | 83 | 1013.4 |
| 20260508000358 | 50 | 182 | 3.0 | 4.0 | 0.00 | 0.00 | 0.00 | 83 | 1013.5 |
| 20260507235916 | 50 | 182 | 2.0 | 3.0 | 0.00 | 0.00 | 0.00 | 83 | 1013.5 |
| 20260507235415 | 50 | 180 | 2.0 | 3.0 | 0.00 | 0.00 | 0.00 | 83 | 1013.5 |
| 20260507234843 | 50 | 180 | 2.0 | 3.0 | 0.00 | 0.00 | 0.00 | 84 | 1013.5 |
| 20260507234427 | 50 | 180 | 1.0 | 3.0 | 0.00 | 0.00 | 0.00 | 84 | 1013.5 |
| 20260507233846 | 50 | 163 | 2.0 | 3.0 | 0.00 | 0.00 | 0.00 | 83 | 1013.5 |
| 20260507233402 | 50 | 60 | 1.0 | 3.0 | 0.00 | 0.00 | 0.00 | 83 | 1013.4 |
| 20260507232858 | 50 | 60 | 1.0 | 3.0 | 0.00 | 0.00 | 0.00 | 83 | 1013.5 |
| 20260507232354 | 50 | 24 | 1.0 | 3.0 | 0.00 | 0.00 | 0.00 | 82 | 1013.4 |
| 20260507231852 | 50 | 24 | 0.0 | 3.0 | 0.00 | 0.00 | 0.00 | 82 | 1013.5 |
| 20260507231347 | 50 | 24 | 1.0 | 2.0 | 0.00 | 0.00 | 0.00 | 82 | 1013.5 |
| 20260507230905 | 50 | 338 | 1.0 | 2.0 | 0.00 | 0.00 | 0.00 | 82 | 1013.5 |
| 20260507230343 | 50 | 338 | 0.0 | 0.0 | 0.00 | 0.00 | 0.00 | 81 | 1013.5 |
| 20260507225857 | 50 | 338 | 0.0 | 0.0 | 0.00 | 0.00 | 0.00 | 81 | 1013.5 |
| 20260507225340 | 50 | 338 | 0.0 | 0.0 | 0.00 | 0.00 | 0.00 | 81 | 1013.4 |
| 20260507224903 | 50 | 338 | 0.0 | 0.0 | 0.00 | 0.00 | 0.00 | 81 | 1013.4 |
| 20260507224401 | 50 | 338 | 0.0 | 1.0 | 0.00 | 0.00 | 0.00 | 81 | 1013.3 |
| 20260507223852 | 50 | 338 | 0.0 | 1.0 | 0.00 | 0.00 | 0.00 | 81 | 1013.3 |
| 20260507223353 | 50 | 338 | 0.0 | 0.0 | 0.00 | 0.00 | 0.00 | 81 | 1013.3 |
| 20260507222848 | 50 | 338 | 0.0 | 0.0 | 0.00 | 0.00 | 0.00 | 81 | 1013.3 |
| 20260507222344 | 50 | 338 | 0.0 | 0.0 | 0.00 | 0.00 | 0.00 | 81 | 1013.3 |
| 20260507221844 | 51 | 338 | 0.0 | 3.0 | 0.00 | 0.00 | 0.00 | 81 | 1013.3 |
| 20260507221342 | 51 | 338 | 0.0 | 3.0 | 0.00 | 0.00 | 0.00 | 80 | 1013.4 |
| 20260507220856 | 51 | 338 | 0.0 | 3.0 | 0.00 | 0.00 | 0.00 | 81 | 1013.3 |
| 20260507220355 | 51 | 338 | 0.0 | 4.0 | 0.00 | 0.00 | 0.00 | 80 | 1013.3 |
| 20260507215857 | 51 | 337 | 1.0 | 4.0 | 0.00 | 0.00 | 0.00 | 80 | 1013.3 |
| 20260507215412 | 51 | 281 | 2.0 | 6.0 | 0.00 | 0.00 | 0.00 | 80 | 1013.3 |
| 20260507214849 | 51 | 244 | 2.0 | 7.0 | 0.00 | 0.00 | 0.00 | 79 | 1013.3 |
| 20260507214341 | 51 | 210 | 5.0 | 8.0 | 0.00 | 0.00 | 0.00 | 79 | 1013.3 |
| 20260507213848 | 51 | 229 | 6.0 | 9.0 | 0.00 | 0.00 | 0.00 | 79 | 1013.2 |
| 20260507213405 | 51 | 204 | 7.0 | 9.0 | 0.00 | 0.00 | 0.00 | 79 | 1013.1 |
| 20260507212840 | 51 | 207 | 7.0 | 11.0 | 0.00 | 0.00 | 0.00 | 78 | 1013.1 |
| 20260507212358 | 51 | 215 | 7.0 | 11.0 | 0.00 | 0.00 | 0.00 | 78 | 1013.0 |
| 20260507211851 | 51 | 192 | 6.0 | 9.0 | 0.00 | 0.00 | 0.00 | 78 | 1012.9 |
| 20260507211409 | 51 | 205 | 6.0 | 9.0 | 0.00 | 0.00 | 0.00 | 78 | 1012.9 |
| 20260507210900 | 51 | 201 | 6.0 | 10.0 | 0.00 | 0.00 | 0.00 | 77 | 1012.9 |
| 20260507210421 | 51 | 197 | 6.0 | 10.0 | 0.00 | 0.00 | 0.00 | 77 | 1012.8 |
| 20260507205900 | 51 | 212 | 6.0 | 8.0 | 0.00 | 0.00 | 0.00 | 77 | 1012.7 |
| 20260507205359 | 52 | 207 | 5.0 | 8.0 | 0.00 | 0.00 | 0.00 | 76 | 1012.7 |
| 20260507204859 | 52 | 197 | 5.0 | 7.0 | 0.00 | 0.00 | 0.00 | 76 | 1012.7 |
| 20260507204353 | 52 | 190 | 4.0 | 5.0 | 0.00 | 0.00 | 0.00 | 76 | 1012.7 |
| 20260507203849 | 52 | 196 | 2.0 | 7.0 | 0.00 | 0.00 | 0.00 | 75 | 1012.6 |
| 20260507203349 | 52 | 198 | 5.0 | 7.0 | 0.00 | 0.00 | 0.00 | 75 | 1012.5 |
| 20260507202850 | 52 | 199 | 5.0 | 9.0 | 0.00 | 0.00 | 0.00 | 75 | 1012.5 |
| 20260507202350 | 52 | 211 | 7.0 | 10.0 | 0.00 | 0.00 | 0.00 | 75 | 1012.4 |
| 20260507201854 | 52 | 210 | 8.0 | 11.0 | 0.00 | 0.00 | 0.00 | 75 | 1012.3 |
| 20260507201349 | 52 | 219 | 8.0 | 11.0 | 0.00 | 0.00 | 0.00 | 74 | 1012.2 |
| 20260507200846 | 53 | 213 | 8.0 | 11.0 | 0.00 | 0.00 | 0.00 | 74 | 1012.2 |
| 20260507200343 | 53 | 217 | 8.0 | 10.0 | 0.00 | 0.00 | 0.00 | 74 | 1012.1 |
| 20260507195841 | 53 | 215 | 7.0 | 11.0 | 0.00 | 0.00 | 0.00 | 74 | 1012.0 |
| 20260507195400 | 53 | 209 | 6.0 | 10.0 | 0.00 | 0.00 | 0.00 | 74 | 1011.9 |
| 20260507194902 | 53 | 223 | 8.0 | 11.0 | 0.00 | 0.00 | 0.00 | 74 | 1011.9 |
| 20260507194402 | 53 | 214 | 8.0 | 12.0 | 0.00 | 0.00 | 0.00 | 74 | 1011.9 |
| 20260507193904 | 53 | 216 | 8.0 | 12.0 | 0.00 | 0.00 | 0.00 | 73 | 1011.8 |
| 20260507193341 | 53 | 204 | 9.0 | 11.0 | 0.00 | 0.00 | 0.00 | 73 | 1011.8 |
| 20260507192858 | 53 | 204 | 8.0 | 11.0 | 0.00 | 0.00 | 0.00 | 73 | 1011.8 |
| 20260507192357 | 54 | 207 | 9.0 | 11.0 | 0.00 | 0.00 | 0.00 | 73 | 1011.8 |
| 20260507191916 | 54 | 234 | 9.0 | 11.0 | 0.00 | 0.00 | 0.00 | 73 | 1011.7 |
| 20260507191350 | 54 | 222 | 10.0 | 12.0 | 0.00 | 0.00 | 0.00 | 72 | 1011.7 |
| 20260507190843 | 54 | 217 | 10.0 | 12.0 | 0.00 | 0.00 | 0.00 | 72 | 1011.7 |
| 20260507190401 | 54 | 211 | 8.0 | 12.0 | 0.00 | 0.00 | 0.00 | 72 | 1011.6 |
| 20260507185900 | 54 | 232 | 8.0 | 15.0 | 0.00 | 0.00 | 0.00 | 72 | 1011.6 |
| 20260507185353 | 54 | 206 | 11.0 | 16.0 | 0.00 | 0.00 | 0.00 | 71 | 1011.6 |
| 20260507184851 | 55 | 219 | 11.0 | 16.0 | 0.00 | 0.00 | 0.00 | 70 | 1011.6 |
| 20260507184348 | 55 | 209 | 13.0 | 16.0 | 0.00 | 0.00 | 0.00 | 70 | 1011.5 |
| 20260507183902 | 55 | 225 | 9.0 | 14.0 | 0.00 | 0.00 | 0.00 | 70 | 1011.5 |
| 20260507183410 | 55 | 219 | 10.0 | 14.0 | 0.00 | 0.00 | 0.00 | 69 | 1011.4 |
| 20260507182840 | 55 | 217 | 8.0 | 10.0 | 0.00 | 0.00 | 0.00 | 67 | 1011.3 |
| 20260507182343 | 55 | 223 | 6.0 | 9.0 | 0.00 | 0.00 | 0.00 | 66 | 1011.2 |
| 20260507181903 | 55 | 219 | 7.0 | 9.0 | 0.00 | 0.00 | 0.00 | 66 | 1011.2 |
| 20260507181353 | 56 | 232 | 7.0 | 9.0 | 0.00 | 0.00 | 0.00 | 65 | 1011.1 |
| 20260507180855 | 56 | 208 | 7.0 | 10.0 | 0.00 | 0.00 | 0.00 | 65 | 1011.1 |
| 20260507180356 | 56 | 207 | 8.0 | 10.0 | 0.00 | 0.00 | 0.00 | 64 | 1011.1 |
| 20260507175850 | 56 | 237 | 7.0 | 10.0 | 0.00 | 0.00 | 0.00 | 64 | 1011.1 |
| 20260507175348 | 56 | 217 | 8.0 | 10.0 | 0.00 | 0.00 | 0.00 | 64 | 1011.1 |
| 20260507174844 | 56 | 224 | 7.0 | 9.0 | 0.00 | 0.00 | 0.00 | 65 | 1011.1 |
| 20260507174347 | 56 | 251 | 7.0 | 9.0 | 0.00 | 0.00 | 0.00 | 64 | 1011.1 |
| 20260507173843 | 56 | 205 | 6.0 | 9.0 | 0.00 | 0.00 | 0.00 | 65 | 1011.1 |
| 20260507173342 | 56 | 221 | 7.0 | 11.0 | 0.00 | 0.00 | 0.00 | 65 | 1011.1 |
| 20260507172903 | 56 | 213 | 7.0 | 11.0 | 0.00 | 0.00 | 0.00 | 64 | 1011.1 |
| 20260507172353 | 56 | 211 | 9.0 | 10.0 | 0.00 | 0.00 | 0.00 | 65 | 1011.0 |
| 20260507171912 | 56 | 259 | 9.0 | 13.0 | 0.00 | 0.00 | 0.00 | 63 | 1011.0 |
| 20260507171343 | 56 | 264 | 9.0 | 13.0 | 0.00 | 0.00 | 0.00 | 64 | 1011.0 |
| 20260507170841 | 56 | 220 | 10.0 | 16.0 | 0.00 | 0.00 | 0.00 | 61 | 1011.0 |
| 20260507170343 | 57 | 224 | 12.0 | 16.0 | 0.00 | 0.00 | 0.00 | 63 | 1011.0 |
| 20260507165903 | 57 | 230 | 11.0 | 16.0 | 0.00 | 0.00 | 0.00 | 63 | 1011.0 |
| 20260507165401 | 58 | 238 | 11.0 | 16.0 | 0.00 | 0.00 | 0.00 | 62 | 1010.9 |
| 20260507164840 | 58 | 218 | 10.0 | 15.0 | 0.00 | 0.00 | 0.00 | 61 | 1010.9 |
| 20260507164357 | 58 | 226 | 8.0 | 15.0 | 0.00 | 0.00 | 0.00 | 63 | 1010.9 |
| 20260507163857 | 57 | 238 | 10.0 | 14.0 | 0.00 | 0.00 | 0.00 | 60 | 1010.9 |
| 20260507163353 | 57 | 207 | 8.0 | 11.0 | 0.00 | 0.00 | 0.00 | 61 | 1010.8 |
| 20260507162851 | 57 | 208 | 8.0 | 11.0 | 0.00 | 0.00 | 0.00 | 60 | 1010.9 |
| 20260507162349 | 57 | 213 | 8.0 | 10.0 | 0.00 | 0.00 | 0.00 | 62 | 1010.9 |
| 20260507161847 | 58 | 224 | 9.0 | 14.0 | 0.00 | 0.00 | 0.00 | 60 | 1010.8 |
| 20260507161344 | 59 | 227 | 9.0 | 18.0 | 0.00 | 0.00 | 0.00 | 57 | 1010.8 |
| 20260507160900 | 60 | 240 | 12.0 | 17.0 | 0.00 | 0.00 | 0.00 | 56 | 1010.8 |
| 20260507160358 | 60 | 204 | 12.0 | 19.0 | 0.00 | 0.00 | 0.00 | 56 | 1010.8 |
| 20260507155855 | 60 | 225 | 14.0 | 19.0 | 0.00 | 0.00 | 0.00 | 56 | 1010.7 |
| 20260507155357 | 61 | 236 | 14.0 | 19.0 | 0.00 | 0.00 | 0.00 | 56 | 1010.6 |
| 20260507154859 | 60 | 209 | 13.0 | 21.0 | 0.00 | 0.00 | 0.00 | 54 | 1010.8 |
| 20260507154349 | 59 | 245 | 13.0 | 16.0 | 0.00 | 0.00 | 0.00 | 55 | 1010.8 |
| 20260507153845 | 60 | 242 | 9.0 | 22.0 | 0.00 | 0.00 | 0.00 | 53 | 1010.7 |
| 20260507153348 | 61 | 233 | 15.0 | 22.0 | 0.00 | 0.00 | 0.00 | 53 | 1010.8 |
| 20260507152844 | 60 | 220 | 11.0 | 16.0 | 0.00 | 0.00 | 0.00 | 54 | 1010.6 |
| 20260507152347 | 60 | 206 | 10.0 | 17.0 | 0.00 | 0.00 | 0.00 | 52 | 1010.7 |
| 20260507151840 | 61 | 237 | 12.0 | 19.0 | 0.00 | 0.00 | 0.00 | 52 | 1010.7 |
| 20260507151359 | 61 | 196 | 11.0 | 18.0 | 0.00 | 0.00 | 0.00 | 55 | 1010.8 |
| 20260507150849 | 61 | 259 | 12.0 | 20.0 | 0.00 | 0.00 | 0.00 | 56 | 1010.8 |
| 20260507150350 | 61 | 217 | 13.0 | 20.0 | 0.00 | 0.00 | 0.00 | 55 | 1010.8 |
| 20260507145851 | 61 | 211 | 12.0 | 15.0 | 0.00 | 0.00 | 0.00 | 57 | 1010.8 |
| 20260507145344 | 60 | 204 | 11.0 | 18.0 | 0.00 | 0.00 | 0.00 | 61 | 1010.9 |
| 20260507144841 | 58 | 232 | 12.0 | 18.0 | 0.00 | 0.00 | 0.00 | 64 | 1010.9 |
| 20260507144401 | 58 | 214 | 7.0 | 11.0 | 0.00 | 0.00 | 0.00 | 63 | 1010.9 |
| 20260507143855 | 58 | 223 | 9.0 | 12.0 | 0.00 | 0.00 | 0.00 | 62 | 1011.0 |
| 20260507143355 | 58 | 193 | 8.0 | 15.0 | 0.00 | 0.00 | 0.00 | 64 | 1011.0 |
| 20260507142853 | 59 | 247 | 9.0 | 15.0 | 0.00 | 0.00 | 0.00 | 65 | 1011.0 |
| 20260507142406 | 59 | 216 | 10.0 | 19.0 | 0.00 | 0.00 | 0.00 | 61 | 1011.1 |
| 20260507141841 | 60 | 239 | 14.0 | 19.0 | 0.00 | 0.00 | 0.00 | 65 | 1011.2 |
| 20260507141341 | 57 | 246 | 11.0 | 16.0 | 0.00 | 0.00 | 0.00 | 68 | 1011.2 |
| 20260507140918 | 57 | 211 | 10.0 | 13.0 | 0.00 | 0.00 | 0.00 | 66 | 1011.1 |
| 20260507140352 | 57 | 216 | 6.0 | 11.0 | 0.00 | 0.00 | 0.00 | 67 | 1011.1 |
| 20260507135848 | 57 | 211 | 9.0 | 13.0 | 0.00 | 0.00 | 0.00 | 66 | 1011.2 |
| 20260507135345 | 58 | 217 | 9.0 | 13.0 | 0.00 | 0.00 | 0.00 | 65 | 1011.2 |
| 20260507134842 | 59 | 211 | 10.0 | 12.0 | 0.00 | 0.00 | 0.00 | 65 | 1011.2 |
| 20260507134420 | 58 | 196 | 6.0 | 10.0 | 0.00 | 0.00 | 0.00 | 68 | 1011.2 |
| 20260507133850 | 57 | 190 | 5.0 | 12.0 | 0.00 | 0.00 | 0.00 | 68 | 1011.3 |
| 20260507133348 | 57 | 191 | 7.0 | 12.0 | 0.00 | 0.00 | 0.00 | 69 | 1011.3 |
| 20260507132910 | 56 | 160 | 7.0 | 12.0 | 0.00 | 0.00 | 0.00 | 70 | 1011.4 |
| 20260507132346 | 56 | 214 | 8.0 | 11.0 | 0.00 | 0.00 | 0.00 | 69 | 1011.4 |
| 20260507131841 | 56 | 235 | 7.0 | 15.0 | 0.00 | 0.00 | 0.00 | 69 | 1011.3 |
| 20260507131358 | 57 | 229 | 10.0 | 15.0 | 0.00 | 0.00 | 0.00 | 67 | 1011.3 |
| 20260507130849 | 57 | 235 | 10.0 | 13.0 | 0.00 | 0.00 | 0.00 | 67 | 1011.3 |
| 20260507130353 | 57 | 171 | 8.0 | 14.0 | 0.00 | 0.00 | 0.00 | 66 | 1011.3 |
| 20260507125857 | 58 | 184 | 10.0 | 15.0 | 0.00 | 0.00 | 0.00 | 64 | 1011.4 |
| 20260507125357 | 57 | 223 | 13.0 | 16.0 | 0.00 | 0.00 | 0.00 | 67 | 1011.4 |
| 20260507124857 | 57 | 175 | 8.0 | 21.0 | 0.00 | 0.00 | 0.00 | 66 | 1011.5 |
| 20260507124352 | 57 | 188 | 13.0 | 21.0 | 0.00 | 0.00 | 0.00 | 67 | 1011.6 |
| 20260507123904 | 58 | 192 | 14.0 | 19.0 | 0.00 | 0.00 | 0.00 | 65 | 1011.5 |
| 20260507123357 | 58 | 207 | 11.0 | 17.0 | 0.00 | 0.00 | 0.00 | 66 | 1011.6 |
| 20260507122859 | 57 | 161 | 10.0 | 15.0 | 0.00 | 0.00 | 0.00 | 64 | 1011.5 |
| 20260507122355 | 58 | 184 | 9.0 | 17.0 | 0.00 | 0.00 | 0.00 | 64 | 1011.7 |
| 20260507121858 | 59 | 198 | 13.0 | 18.0 | 0.00 | 0.00 | 0.00 | 62 | 1011.6 |
| 20260507121353 | 59 | 188 | 12.0 | 18.0 | 0.00 | 0.00 | 0.00 | 62 | 1011.7 |
| 20260507120844 | 57 | 184 | 8.0 | 17.0 | 0.00 | 0.00 | 0.00 | 66 | 1011.7 |
| 20260507120346 | 57 | 154 | 10.0 | 16.0 | 0.00 | 0.00 | 0.00 | 64 | 1011.9 |
| 20260507115844 | 58 | 206 | 10.0 | 18.0 | 0.00 | 0.00 | 0.00 | 64 | 1011.9 |
| 20260507115424 | 58 | 190 | 9.0 | 16.0 | 0.00 | 0.00 | 0.00 | 67 | 1011.9 |
| 20260507114920 | 57 | 206 | 11.0 | 15.0 | 0.00 | 0.00 | 0.00 | 66 | 1012.0 |
| 20260507114400 | 57 | 126 | 8.0 | 16.0 | 0.00 | 0.00 | 0.00 | 66 | 1012.1 |
| 20260507113851 | 58 | 182 | 10.0 | 14.0 | 0.00 | 0.00 | 0.00 | 64 | 1012.2 |
| 20260507113353 | 57 | 193 | 9.0 | 14.0 | 0.00 | 0.00 | 0.00 | 67 | 1012.2 |
| 20260507112916 | 56 | 173 | 8.0 | 13.0 | 0.00 | 0.00 | 0.00 | 72 | 1012.2 |
| 20260507112350 | 55 | 179 | 5.0 | 9.0 | 0.00 | 0.00 | 0.00 | 71 | 1012.2 |
| 20260507111849 | 55 | 209 | 7.0 | 10.0 | 0.00 | 0.00 | 0.00 | 72 | 1012.3 |
| 20260507111348 | 54 | 175 | 8.0 | 13.0 | 0.00 | 0.00 | 0.00 | 71 | 1012.3 |
| 20260507110841 | 54 | 165 | 9.0 | 13.0 | 0.00 | 0.00 | 0.00 | 70 | 1012.3 |
| 20260507110357 | 54 | 190 | 9.0 | 12.0 | 0.00 | 0.00 | 0.00 | 70 | 1012.3 |
| 20260507105919 | 54 | 211 | 6.0 | 12.0 | 0.00 | 0.00 | 0.00 | 71 | 1012.3 |
| 20260507105344 | 54 | 216 | 9.0 | 12.0 | 0.00 | 0.00 | 0.00 | 70 | 1012.3 |
| 20260507104840 | 54 | 207 | 10.0 | 16.0 | 0.00 | 0.00 | 0.00 | 69 | 1012.4 |
| 20260507104357 | 54 | 144 | 7.0 | 16.0 | 0.00 | 0.00 | 0.00 | 68 | 1012.4 |
| 20260507103855 | 55 | 203 | 10.0 | 14.0 | 0.00 | 0.00 | 0.00 | 67 | 1012.5 |
| 20260507103345 | 55 | 217 | 11.0 | 16.0 | 0.00 | 0.00 | 0.00 | 67 | 1012.5 |
| 20260507102841 | 54 | 202 | 11.0 | 16.0 | 0.00 | 0.00 | 0.00 | 68 | 1012.5 |
| 20260507102356 | 54 | 186 | 9.0 | 18.0 | 0.00 | 0.00 | 0.00 | 68 | 1012.5 |
| 20260507101859 | 54 | 194 | 13.0 | 18.0 | 0.00 | 0.00 | 0.00 | 67 | 1012.5 |
| 20260507101359 | 54 | 163 | 12.0 | 16.0 | 0.00 | 0.00 | 0.00 | 63 | 1012.4 |
| 20260507100853 | 54 | 217 | 10.0 | 18.0 | 0.00 | 0.00 | 0.00 | 65 | 1012.5 |
| 20260507100350 | 55 | 199 | 12.0 | 18.0 | 0.00 | 0.00 | 0.00 | 66 | 1012.5 |
| 20260507095843 | 56 | 132 | 10.0 | 14.0 | 0.00 | 0.00 | 0.00 | 66 | 1012.5 |
| 20260507095401 | 55 | 206 | 8.0 | 16.0 | 0.00 | 0.00 | 0.00 | 70 | 1012.4 |
| 20260507094855 | 54 | 197 | 11.0 | 16.0 | 0.00 | 0.00 | 0.00 | 72 | 1012.4 |
| 20260507094355 | 53 | 211 | 13.0 | 17.0 | 0.00 | 0.00 | 0.00 | 71 | 1012.5 |
| 20260507093852 | 53 | 204 | 9.0 | 15.0 | 0.00 | 0.00 | 0.00 | 74 | 1012.5 |
| 20260507093352 | 53 | 201 | 10.0 | 15.0 | 0.00 | 0.00 | 0.00 | 74 | 1012.5 |
| 20260507092844 | 53 | 209 | 9.0 | 12.0 | 0.00 | 0.00 | 0.00 | 73 | 1012.4 |
| 20260507092345 | 53 | 194 | 8.0 | 13.0 | 0.00 | 0.00 | 0.00 | 74 | 1012.4 |
| 20260507091856 | 53 | 196 | 10.0 | 16.0 | 0.00 | 0.00 | 0.00 | 72 | 1012.4 |
| 20260507091355 | 53 | 195 | 12.0 | 16.0 | 0.00 | 0.00 | 0.00 | 72 | 1012.4 |
| 20260507090855 | 53 | 198 | 11.0 | 18.0 | 0.00 | 0.00 | 0.00 | 71 | 1012.4 |
| 20260507090417 | 53 | 198 | 12.0 | 17.0 | 0.00 | 0.00 | 0.00 | 71 | 1012.4 |
| 20260507085855 | 53 | 200 | 12.0 | 17.0 | 0.00 | 0.00 | 0.00 | 71 | 1012.4 |
| 20260507085349 | 53 | 217 | 10.0 | 11.0 | 0.00 | 0.00 | 0.00 | 75 | 1012.4 |
| 20260507084842 | 53 | 186 | 8.0 | 10.0 | 0.00 | 0.00 | 0.00 | 78 | 1012.4 |
| 20260507084404 | 52 | 165 | 6.0 | 11.0 | 0.00 | 0.00 | 0.00 | 78 | 1012.4 |
| 20260507083859 | 52 | 164 | 7.0 | 11.0 | 0.00 | 0.00 | 0.00 | 78 | 1012.4 |
| 20260507083353 | 52 | 157 | 8.0 | 11.0 | 0.00 | 0.00 | 0.00 | 79 | 1012.4 |
| 20260507082921 | 52 | 159 | 5.0 | 11.0 | 0.00 | 0.00 | 0.00 | 80 | 1012.4 |
| 20260507082407 | 52 | 105 | 6.0 | 10.0 | 0.00 | 0.00 | 0.00 | 80 | 1012.4 |
| 20260507081847 | 52 | 118 | 7.0 | 11.0 | 0.00 | 0.00 | 0.00 | 80 | 1012.4 |
| 20260507081347 | 51 | 118 | 6.0 | 11.0 | 0.00 | 0.00 | 0.00 | 80 | 1012.5 |
| 20260507080846 | 51 | 157 | 6.0 | 10.0 | 0.00 | 0.00 | 0.00 | 82 | 1012.5 |
| 20260507080341 | 51 | 179 | 5.0 | 11.0 | 0.00 | 0.00 | 0.00 | 82 | 1012.6 |
| 20260507075845 | 50 | 141 | 5.0 | 9.0 | 0.00 | 0.00 | 0.00 | 82 | 1012.6 |
| 20260507075340 | 50 | 148 | 5.0 | 11.0 | 0.00 | 0.00 | 0.00 | 83 | 1012.6 |
| 20260507074918 | 50 | 152 | 7.0 | 11.0 | 0.00 | 0.00 | 0.00 | 83 | 1012.6 |
| 20260507074352 | 49 | 177 | 4.0 | 8.0 | 0.00 | 0.00 | 0.00 | 84 | 1012.5 |
| 20260507073847 | 49 | 165 | 3.0 | 9.0 | 0.00 | 0.00 | 0.00 | 84 | 1012.5 |
| 20260507073348 | 49 | 148 | 5.0 | 10.0 | 0.00 | 0.00 | 0.00 | 83 | 1012.5 |
| 20260507072907 | 49 | 125 | 4.0 | 10.0 | 0.00 | 0.00 | 0.00 | 84 | 1012.5 |
| 20260507072357 | 49 | 135 | 4.0 | 9.0 | 0.00 | 0.00 | 0.00 | 84 | 1012.4 |
| 20260507071910 | 49 | 137 | 5.0 | 9.0 | 0.00 | 0.00 | 0.00 | 84 | 1012.4 |
| 20260507071345 | 49 | 190 | 6.0 | 9.0 | 0.00 | 0.00 | 0.00 | 84 | 1012.4 |
| 20260507070903 | 49 | 180 | 4.0 | 7.0 | 0.00 | 0.00 | 0.00 | 84 | 1012.4 |
| 20260507070347 | 49 | 157 | 4.0 | 8.0 | 0.00 | 0.00 | 0.00 | 85 | 1012.4 |
| 20260507065840 | 49 | 161 | 5.0 | 7.0 | 0.00 | 0.00 | 0.00 | 85 | 1012.4 |
| 20260507065342 | 49 | 173 | 5.0 | 8.0 | 0.00 | 0.00 | 0.00 | 85 | 1012.4 |
| 20260507064900 | 49 | 148 | 4.0 | 8.0 | 0.00 | 0.00 | 0.00 | 85 | 1012.4 |
| 20260507064349 | 48 | 169 | 4.0 | 5.0 | 0.00 | 0.00 | 0.00 | 85 | 1012.3 |
| 20260507063846 | 48 | 180 | 3.0 | 5.0 | 0.00 | 0.00 | 0.00 | 86 | 1012.3 |
| 20260507063351 | 48 | 172 | 4.0 | 5.0 | 0.00 | 0.00 | 0.00 | 86 | 1012.3 |
| 20260507062846 | 48 | 183 | 3.0 | 6.0 | 0.00 | 0.00 | 0.00 | 87 | 1012.3 |
| 20260507062344 | 48 | 170 | 3.0 | 6.0 | 0.00 | 0.00 | 0.00 | 87 | 1012.3 |
| 20260507061844 | 47 | 196 | 3.0 | 5.0 | 0.00 | 0.00 | 0.00 | 87 | 1012.3 |
| 20260507061350 | 47 | 190 | 4.0 | 6.0 | 0.00 | 0.00 | 0.00 | 87 | 1012.3 |
| 20260507060851 | 47 | 191 | 4.0 | 6.0 | 0.00 | 0.00 | 0.00 | 87 | 1012.4 |
| 20260507060345 | 47 | 189 | 4.0 | 5.0 | 0.00 | 0.00 | 0.00 | 87 | 1012.5 |
| 20260507055849 | 47 | 197 | 4.0 | 5.0 | 0.00 | 0.00 | 0.00 | 86 | 1012.4 |
| 20260507055406 | 47 | 196 | 3.0 | 5.0 | 0.00 | 0.00 | 0.00 | 86 | 1012.4 |
| 20260507054907 | 47 | 190 | 3.0 | 5.0 | 0.00 | 0.00 | 0.00 | 86 | 1012.4 |
| 20260507054342 | 47 | 184 | 2.0 | 4.0 | 0.00 | 0.00 | 0.00 | 86 | 1012.4 |
| 20260507053843 | 47 | 186 | 2.0 | 4.0 | 0.00 | 0.00 | 0.00 | 86 | 1012.4 |
| 20260507053353 | 47 | 186 | 2.0 | 4.0 | 0.00 | 0.00 | 0.00 | 86 | 1012.4 |
| 20260507052911 | 47 | 194 | 2.0 | 3.0 | 0.00 | 0.00 | 0.00 | 86 | 1012.4 |
| 20260507052346 | 47 | 163 | 1.0 | 3.0 | 0.00 | 0.00 | 0.00 | 85 | 1012.3 |
| 20260507051843 | 47 | 169 | 1.0 | 3.0 | 0.00 | 0.00 | 0.00 | 85 | 1012.3 |
| 20260507051354 | 47 | 169 | 1.0 | 3.0 | 0.00 | 0.00 | 0.00 | 85 | 1012.3 |
| 20260507050854 | 47 | 182 | 0.0 | 3.0 | 0.00 | 0.00 | 0.00 | 85 | 1012.2 |
| 20260507050347 | 47 | 182 | 2.0 | 5.0 | 0.00 | 0.00 | 0.00 | 85 | 1012.2 |
| 20260507045906 | 47 | 188 | 2.0 | 5.0 | 0.00 | 0.00 | 0.00 | 85 | 1012.1 |
| 20260507045419 | 47 | 190 | 2.0 | 4.0 | 0.00 | 0.00 | 0.00 | 85 | 1012.2 |
| 20260507044840 | 47 | 186 | 2.0 | 4.0 | 0.00 | 0.00 | 0.00 | 85 | 1012.1 |
| 20260507044356 | 47 | 185 | 3.0 | 5.0 | 0.00 | 0.00 | 0.00 | 85 | 1012.2 |
| 20260507043851 | 47 | 191 | 3.0 | 5.0 | 0.00 | 0.00 | 0.00 | 85 | 1012.2 |
| 20260507043407 | 47 | 166 | 3.0 | 5.0 | 0.00 | 0.00 | 0.00 | 85 | 1012.2 |
| 20260507042845 | 47 | 167 | 3.0 | 6.0 | 0.00 | 0.00 | 0.00 | 84 | 1012.2 |
| 20260507042407 | 47 | 163 | 3.0 | 5.0 | 0.00 | 0.00 | 0.00 | 84 | 1012.1 |
| 20260507041923 | 47 | 163 | 3.0 | 6.0 | 0.00 | 0.00 | 0.00 | 85 | 1012.1 |
| 20260507041354 | 47 | 186 | 2.0 | 4.0 | 0.00 | 0.00 | 0.00 | 85 | 1012.1 |
| 20260507040855 | 47 | 175 | 2.0 | 6.0 | 0.00 | 0.00 | 0.00 | 84 | 1012.2 |
| 20260507040349 | 47 | 161 | 3.0 | 6.0 | 0.00 | 0.00 | 0.00 | 84 | 1012.1 |
| 20260507035847 | 47 | 150 | 3.0 | 5.0 | 0.00 | 0.00 | 0.00 | 84 | 1012.1 |
| 20260507035409 | 47 | 183 | 4.0 | 8.0 | 0.00 | 0.00 | 0.00 | 84 | 1012.1 |
| 20260507034925 | 47 | 180 | 5.0 | 8.0 | 0.00 | 0.00 | 0.00 | 85 | 1012.1 |
| 20260507034342 | 47 | 177 | 3.0 | 6.0 | 0.00 | 0.00 | 0.00 | 84 | 1012.1 |
| 20260507033839 | 47 | 158 | 3.0 | 6.0 | 0.00 | 0.00 | 0.00 | 85 | 1012.2 |
| 20260507033353 | 47 | 193 | 4.0 | 6.0 | 0.00 | 0.00 | 0.00 | 85 | 1012.2 |
| 20260507032846 | 47 | 186 | 3.0 | 6.0 | 0.00 | 0.00 | 0.00 | 85 | 1012.2 |
| 20260507032345 | 47 | 195 | 3.0 | 5.0 | 0.00 | 0.00 | 0.00 | 85 | 1012.2 |
| 20260507031840 | 47 | 165 | 2.0 | 5.0 | 0.00 | 0.00 | 0.00 | 85 | 1012.2 |
| 20260507031418 | 47 | 192 | 3.0 | 5.0 | 0.00 | 0.00 | 0.00 | 85 | 1012.2 |
| 20260507030850 | 47 | 198 | 4.0 | 5.0 | 0.00 | 0.00 | 0.00 | 85 | 1012.2 |
| 20260507030353 | 47 | 191 | 3.0 | 5.0 | 0.00 | 0.00 | 0.00 | 85 | 1012.2 |
| 20260507025850 | 47 | 201 | 3.0 | 6.0 | 0.00 | 0.00 | 0.00 | 84 | 1012.2 |
| 20260507025349 | 47 | 186 | 3.0 | 4.0 | 0.00 | 0.00 | 0.00 | 84 | 1012.2 |
| 20260507024910 | 47 | 150 | 3.0 | 5.0 | 0.00 | 0.00 | 0.00 | 84 | 1012.3 |
| 20260507024340 | 47 | 160 | 1.0 | 3.0 | 0.00 | 0.00 | 0.00 | 84 | 1012.3 |
| 20260507023859 | 48 | 160 | 1.0 | 5.0 | 0.00 | 0.00 | 0.00 | 84 | 1012.3 |
| 20260507023350 | 48 | 164 | 3.0 | 5.0 | 0.00 | 0.00 | 0.00 | 84 | 1012.3 |
| 20260507022850 | 48 | 155 | 3.0 | 6.0 | 0.00 | 0.00 | 0.00 | 84 | 1012.3 |
| 20260507022405 | 48 | 156 | 4.0 | 6.0 | 0.00 | 0.00 | 0.00 | 84 | 1012.3 |
| 20260507021844 | 48 | 159 | 3.0 | 5.0 | 0.00 | 0.00 | 0.00 | 83 | 1012.3 |
| 20260507021343 | 48 | 160 | 3.0 | 6.0 | 0.00 | 0.00 | 0.00 | 83 | 1012.4 |
| 20260507020859 | 48 | 156 | 2.0 | 5.0 | 0.00 | 0.00 | 0.00 | 83 | 1012.4 |
| 20260507020420 | 48 | 153 | 2.0 | 5.0 | 0.00 | 0.00 | 0.00 | 83 | 1012.4 |
| 20260507015850 | 48 | 153 | 3.0 | 5.0 | 0.00 | 0.00 | 0.00 | 83 | 1012.4 |
| 20260507015411 | 48 | 166 | 3.0 | 5.0 | 0.00 | 0.00 | 0.00 | 83 | 1012.5 |
| 20260507014850 | 48 | 165 | 3.0 | 5.0 | 0.00 | 0.00 | 0.00 | 83 | 1012.5 |
| 20260507014407 | 48 | 147 | 3.0 | 5.0 | 0.00 | 0.00 | 0.00 | 82 | 1012.5 |
| 20260507013900 | 48 | 146 | 3.0 | 5.0 | 0.00 | 0.00 | 0.00 | 82 | 1012.5 |
| 20260507013400 | 48 | 147 | 3.0 | 4.0 | 0.00 | 0.00 | 0.00 | 82 | 1012.5 |
| 20260507012918 | 48 | 157 | 1.0 | 3.0 | 0.00 | 0.00 | 0.00 | 82 | 1012.5 |
| 20260507012400 | 48 | 167 | 2.0 | 3.0 | 0.00 | 0.00 | 0.00 | 82 | 1012.5 |
| 20260507011918 | 48 | 173 | 1.0 | 4.0 | 0.00 | 0.00 | 0.00 | 82 | 1012.5 |